Simultaneous Nadir Overpasses (SNOs) Predictions

Prediction of SNOs between NOAA-20 and LANDSAT-9 Satellite Orbit:

Table of predicted SNOs for the next 14.0 days since TLE Epoch: 8/30/2024
Index Date (NOAA-20) Time (NOAA-20) Lat,Lon (NOAA-20) SZA (NOAA-20 ) Date (LANDSAT-9) Time (LANDSAT-9) Lat,Lon (LANDSAT-9) SZA (LANDSAT-9 ) Distance(km) Time Diff (sec)
1 09/01/2024 14:52:46 70.43, -47.56 62.43 09/01/2024 14:53:57 70.33, -46.76 62.31 31.70 71
2 09/01/2024 15:43:22 -70.00, 120.41 118.00 09/01/2024 15:43:31 -70.00, 120.40 118.01 0.83 9
3 09/01/2024 16:34:06 69.91, -72.14 61.92 09/01/2024 16:32:58 69.89, -72.11 61.91 2.07 68
4 09/04/2024 07:09:31 70.11, 68.72 63.08 09/04/2024 07:10:28 70.09, 68.79 63.06 3.25 57
5 09/04/2024 08:00:13 -70.00,-123.80 117.03 09/04/2024 07:59:58 -69.98,-123.73 117.04 2.96 15
6 09/04/2024 08:50:44 69.21, 44.65 62.19 09/04/2024 08:49:36 69.26, 42.94 62.28 67.68 68
7 09/06/2024 23:26:20 70.02,-175.36 63.98 09/06/2024 23:26:55 70.01,-175.42 63.97 2.49 35
8 09/07/2024 00:17:02 -69.90, -7.87 116.13 09/07/2024 00:16:25 -69.90, -7.94 116.13 2.74 37
9 09/09/2024 14:52:35 -70.60, 132.20 114.43 09/09/2024 14:53:45 -70.47, 133.51 114.59 50.43 70
10 09/09/2024 15:43:09 69.99, -59.54 64.96 09/09/2024 15:43:19 69.98, -59.57 64.94 2.31 10
11 09/09/2024 16:33:51 -69.88, 107.95 115.15 09/09/2024 16:32:49 -69.87, 107.91 115.16 1.58 62
12 09/12/2024 07:09:15 -70.07,-111.18 113.97 09/12/2024 07:10:16 -70.05,-111.20 113.99 1.97 61
13 09/12/2024 07:59:58 69.94, 56.33 65.92 09/12/2024 07:59:43 69.93, 56.28 65.91 1.84 15
14 09/12/2024 08:50:31 -69.34,-135.49 114.69 09/12/2024 08:49:21 -69.39,-136.83 114.61 53.00 70



Historial Predications of SNOs between NOAA-20 and LANDSAT-9
